This is the latest recevied weather packets stored in our database for station/object K5WNG. If no packets are shown the sender has not sent any weather packets the latest 10 day(s).
| Time | Temp. | Humidity | Pressure | Rain* | Wind** | Luminosity | Snow |
|---|---|---|---|---|---|---|---|
| 1778112619 | 17.22° C | 81% | 1012.4 hPa | 0 mm | - | 68 W/m² | - |
| 1778112316 | 17.22° C | 81% | 1012.5 hPa | 0 mm | - | 59 W/m² | - |
| 1778112020 | 17.22° C | 81% | 1012.4 hPa | 0 mm | - | 66 W/m² | - |
| 1778111722 | 17.22° C | 81% | 1012.2 hPa | 0 mm | - | 68 W/m² | - |
| 1778111416 | 17.22° C | 81% | 1012.4 hPa | 0 mm | - | 86 W/m² | - |
| 1778111116 | 17.22° C | 81% | 1012.5 hPa | 0 mm | - | 84 W/m² | - |
| 1778110820 | 17.22° C | 81% | 1012.2 hPa | 0 mm | - | 88 W/m² | - |
| 1778110516 | 17.22° C | 81% | 1012.1 hPa | 0 mm | - | 88 W/m² | - |
| 1778110216 | 17.22° C | 80% | 1012.2 hPa | 0 mm | - | 100 W/m² | - |
| 1778109916 | 17.22° C | 80% | 1012.2 hPa | 0 mm | - | 98 W/m² | - |
| 1778109619 | 17.22° C | 80% | 1012.2 hPa | 0 mm | - | 127 W/m² | - |
| 1778109321 | 17.22° C | 79% | 1012.1 hPa | 0 mm | - | 127 W/m² | - |
| 1778109016 | 17.22° C | 80% | 1012.1 hPa | 0 mm | - | 144 W/m² | - |
| 1778108717 | 17.22° C | 79% | 1012 hPa | 0 mm | - | 193 W/m² | - |
| 1778108416 | 17.22° C | 79% | 1012.2 hPa | 0 mm | - | 178 W/m² | - |
| 1778108116 | 17.22° C | 80% | 1012.1 hPa | 0 mm | - | 180 W/m² | - |
| 1778107820 | 17.22° C | 80% | 1012.1 hPa | 0 mm | - | 174 W/m² | - |
| 1778107521 | 17.22° C | 80% | 1012.2 hPa | 0 mm | - | 156 W/m² | - |
| 1778107217 | 17.22° C | 79% | 1012.1 hPa | 0 mm | - | 154 W/m² | - |
| 1778106920 | 17.22° C | 79% | 1012.1 hPa | 0 mm | - | 190 W/m² | - |
| 1778106617 | 17.78° C | 78% | 1012 hPa | 0 mm | - | 217 W/m² | - |
| 1778106316 | 17.78° C | 78% | 1012 hPa | 0 mm | - | 181 W/m² | - |
| 1778106022 | 17.22° C | 79% | 1012 hPa | 0 mm | - | 283 W/m² | - |
| 1778105720 | 17.22° C | 79% | 1012.1 hPa | 0 mm | - | 243 W/m² | - |
| 1778105422 | 17.78° C | 78% | 1012.1 hPa | 0 mm | - | 166 W/m² | - |
* Rain latest hour (hover to see other rain measurements)
** Current wind speed in m/s (hover to see current wind gust speed)